Wetbulb
44.31 44.68 44.91 45.26 45.58 45.57 45.66 45.65 46.14 46.13 46.34 46.63 46.46 46.36 46.39 46.27 46.24 44.20 42.35 44.44 38.49 32.56 34.08 34.00 34.38 30.88 30.82 30.77 26.75 24.63 25.77 25.24 25.74 21.27 20.48 20.23 18.54 21.36 18.96 22.21 20.96 19.33 17.50 16.75 16.82 12.85 10.01 27.24 25.31 19.99 26.33 29.24 29.08 28.33
43.13 43.50 44.14 44.55 44.84 45.06 45.31 45.47 45.87 46.30 46.47 45.98 46.03 46.25 46.15 46.25 46.24 45.48 38.38 41.98 43.03 35.85 35.24 38.33 37.89 38.45 37.04 35.65 32.65 27.22 30.01 26.14 28.31 24.38 24.47 24.21 20.08 20.96 18.88 14.02 24.91 15.85 21.53 18.83 20.05 19.53 27.25 28.14 27.59 30.57 31.29 29.13 29.22 29.06
42.73 42.91 43.13 43.51 43.57 43.88 44.43 45.00 45.23 45.45 45.50 45.26 45.48 45.99 46.01 45.82 46.10 45.36 42.24 39.62 37.76 32.17 32.51 32.93 32.30 36.97 39.09 38.86 39.49 29.66 30.12 31.75 29.32 32.81 28.82 25.14 19.52 23.75 16.94 17.40 20.20 24.30 27.27 21.29 21.27 24.13 26.19 28.52 30.54 31.25 31.55 30.24 30.90 31.05
42.40 42.57 42.55 42.42 42.55 42.75 43.19 43.58 44.13 44.84 45.15 45.30 45.35 45.49 45.89 46.13 45.85 45.44 41.09 40.90 38.64 35.10 28.77 32.17 35.10 35.96 40.15 38.79 37.55 37.53 35.38 33.59 32.80 30.75 26.23 24.32 20.78 26.29 21.30 22.91 22.19 25.32 25.23 22.07 21.55 24.90 26.73 28.09 29.39 30.11 30.32 30.96 30.49 30.83
41.85 41.80 41.74 41.77 41.88 42.13 42.34 42.65 43.11 43.48 44.23 44.54 44.77 44.92 45.26 45.41 45.27 44.22 43.23 41.45 41.67 34.43 29.41 31.15 31.90 35.74 36.99 37.09 35.65 36.04 34.47 32.54 29.28 26.56 25.09 22.90 26.44 24.67 25.03 24.22 21.90 26.41 23.62 20.75 19.26 26.69 26.18 27.07 30.22 31.16 29.21 29.06 29.11 27.34
41.28 41.28 41.18 41.10 41.20 41.54 41.70 42.18 42.21 42.56 42.69 43.50 44.13 44.35 44.28 45.03 45.07 41.22 33.62 40.72 41.00 39.56 30.66 25.82 34.61 31.73 34.16 35.49 34.47 33.67 33.42 32.18 30.80 27.54 26.12 27.47 30.04 25.51 20.85 18.84 25.43 27.98 29.37 29.12 25.67 29.39 28.88 29.70 30.14 30.71 28.92 27.15 24.94 21.82
40.14 40.19 40.19 40.48 40.69 41.23 41.36 41.45 41.82 42.07 42.25 42.64 43.39 43.81 44.01 44.09 42.67 34.98 32.89 38.09 41.85 39.70 31.13 26.84 26.47 28.15 30.86 32.54 32.81 32.40 33.58 31.02 30.47 28.51 26.94 26.76 26.63 26.76 22.44 18.09 25.89 28.43 29.25 29.42 30.18 28.91 26.39 28.21 26.74 27.23 22.79 20.55 17.48 15.77
38.71 38.93 39.13 39.46 39.77 40.15 40.57 40.99 41.30 41.51 41.69 41.88 42.25 42.62 43.37 43.57 42.49 37.64 40.08 40.71 41.79 35.16 31.87 25.54 24.50 24.36 28.82 25.55 25.70 30.19 27.40 28.70 28.96 27.21 27.96 25.31 26.82 26.02 19.57 24.16 26.86 28.07 28.52 28.60 28.90 29.27 27.86 24.86 21.75 18.08 17.21 14.91 12.94 13.22
37.10 37.23 37.77 38.41 38.89 39.27 39.57 39.94 40.33 40.59 40.83 41.08 41.47 41.83 40.68 38.14 33.28 35.69 42.27 41.94 40.87 34.53 27.26 26.81 22.31 20.01 25.85 26.63 27.85 25.55 27.68 22.57 28.01 23.79 24.14 25.19 22.55 19.17 23.02 24.92 25.97 26.87 26.11 26.22 26.89 17.05 15.62 15.73 17.87 15.85 12.98 11.16 10.29 11.19
36.79 36.60 37.00 37.53 38.01 38.48 38.61 38.90 39.21 39.40 39.55 40.09 38.82 32.96 30.49 34.01 41.22 40.77 36.82 32.23 31.39 31.30 30.46 26.02 30.12 23.26 25.13 24.22 23.00 23.01 24.32 22.04 18.70 21.93 26.18 21.51 20.33 26.01 27.13 27.37 27.01 25.01 20.73 17.89 15.22 13.56 10.45 10.35 12.26 12.29 9.14 9.15 7.98 7.22
36.11 36.22 36.45 36.93 37.08 37.23 37.52 37.85 38.22 38.54 38.63 35.11 31.74 31.42 36.32 40.05 35.96 31.92 28.47 27.05 27.83 24.53 27.34 27.04 27.34 21.42 24.89 21.07 21.17 24.23 20.83 21.34 15.18 19.74 18.81 17.73 17.35 23.06 26.71 26.33 23.69 16.52 14.54 10.98 11.02 9.72 8.14 7.97 10.32 8.36 6.47 5.16 4.12 2.64
35.64 36.04 36.25 36.48 36.61 36.74 37.09 37.20 37.31 36.02 35.02 34.76 34.78 35.60 34.39 30.86 28.83 24.71 23.58 25.48 24.21 22.88 25.00 23.42 24.99 27.29 23.30 26.51 22.41 21.65 18.71 19.25 13.48 19.73 17.26 13.64 20.57 23.97 20.95 13.79 9.65 9.50 7.87 3.83 4.46 4.26 3.87 4.76 3.33 2.23 1.09 0.60 0.01 -0.31
34.77 35.04 35.44 35.84 36.19 36.39 36.56 36.62 37.04 37.27 36.83 34.34 30.60 28.60 27.18 26.73 20.12 17.87 15.74 18.86 20.15 20.63 21.69 22.83 20.83 25.11 23.82 24.82 22.43 20.32 16.16 14.36 16.22 14.35 12.49 17.84 20.62 12.11 7.30 3.61 -0.40 -0.30 -0.03 -0.36 -1.18 -0.66 -1.24 -1.57 -2.40 -3.64 -3.47 -2.73 -3.19 -4.05
33.59 34.02 34.68 35.27 35.88 36.24 36.48 36.83 36.53 35.92 32.39 27.29 24.82 19.62 20.89 18.88 20.46 20.90 21.78 24.14 25.11 24.58 21.99 24.49 22.00 21.36 23.91 20.40 21.49 15.98 16.95 13.65 10.79 9.03 11.73 20.33 19.17 7.26 2.24 1.50 -3.08 -4.13 -3.15 -2.55 -3.76 -4.35 -4.88 -5.11 -4.76 -4.87 -5.70 -6.00 -7.16 -8.32
32.81 33.47 34.15 34.58 35.35 36.07 36.24 36.24 36.35 34.66 30.82 25.13 25.14 17.46 19.46 20.58 15.92 12.86 11.19 17.56 18.73 24.15 22.14 20.42 20.45 21.67 20.01 18.39 19.61 15.65 9.85 9.35 11.35 12.56 18.85 20.58 4.14 -0.97 -3.24 -3.80 -5.25 -6.63 -7.06 -7.21 -6.89 -8.17 -7.22 -7.62 -8.31 -8.29 -7.22 -9.08 -8.92 -10.27
32.65 33.17 32.68 34.42 35.19 35.89 36.03 35.55 33.81 32.54 30.19 25.53 21.93 15.23 12.20 18.02 14.85 11.11 11.41 15.14 13.90 22.19 23.10 23.13 18.80 16.84 15.97 17.61 14.82 12.50 9.87 7.86 15.00 17.39 10.07 0.85 -3.98 -3.82 -5.23 -5.58 -6.68 -7.41 -8.48 -8.93 -9.11 -9.69 -8.23 -9.93 -10.50 -9.09 -12.07 -11.77 -11.02 -9.78
31.00 29.06 31.98 33.15 34.37 33.44 33.95 32.43 30.76 22.83 19.04 17.28 13.43 10.25 9.25 17.45 21.55 18.42 16.06 16.50 17.15 20.90 18.55 19.13 14.67 13.80 18.26 13.75 12.47 16.22 13.49 18.27 13.17 4.66 1.51 -0.03 -3.08 -6.37 -8.76 -9.13 -10.91 -11.44 -11.00 -11.28 -11.43 -11.95 -11.22 -10.86 -15.66 -14.62 -12.35 -5.00 -8.09 -5.31
25.89 28.90 31.64 32.98 30.96 26.65 18.84 19.40 18.74 16.64 9.14 7.09 11.22 5.98 5.81 4.03 7.25 7.93 9.13 14.51 17.30 19.14 18.66 17.19 18.34 13.21 12.76 11.13 12.13 16.97 9.69 -3.37 -2.88 -1.58 -2.56 -5.52 -7.44 -8.80 -7.84 -7.77 -12.26 -12.04 -11.43 -13.86 -14.67 -14.36 -14.84 -15.44 -10.48 -5.51 -8.58 -4.65 -6.35 -4.58
27.26 29.53 30.88 32.00 28.32 21.26 17.17 12.52 13.63 9.54 1.81 1.57 2.68 3.06 2.38 1.40 2.90 3.05 5.56 10.33 10.97 11.92 16.79 17.24 14.33 12.92 13.92 15.56 13.65 4.40 0.11 0.17 -3.28 -4.80 -6.85 -9.17 -8.54 -12.51 -12.78 -12.93 -12.69 -12.25 -12.96 -11.29 -10.41 -6.93 -7.18 -10.51 -8.19 -6.42 -4.69 -3.48 -3.51 -1.68
27.13 28.04 27.20 26.15 25.39 17.15 10.26 7.11 10.88 8.18 4.38 1.51 1.87 0.52 0.09 0.11 -0.35 1.49 4.69 7.26 11.23 14.23 13.66 12.96 14.66 8.99 6.66 -1.49 -5.25 -3.33 -1.66 -2.82 -4.75 -6.01 -7.42 -8.20 -8.46 -11.27 -9.75 -9.10 -6.66 -8.69 -9.31 -10.78 -10.14 -10.13 -6.05 -5.32 -4.56 -4.22 -4.34 -4.04 -4.21 -3.64
22.26 23.18 23.81 19.34 13.34 10.53 7.13 5.04 1.28 1.03 0.75 -0.52 -0.35 0.43 -1.77 -1.00 -1.66 0.42 2.77 2.22 8.64 10.01 9.73 -2.26 -4.69 -10.45 -13.62 -13.66 -11.98 -7.34 -6.20 -2.25 -2.99 -1.03 -1.77 -6.57 -7.80 -6.19 -10.07 -9.77 -10.01 -8.30 -6.73 -7.23 -6.77 -7.31 -7.69 -6.81 -5.88 -4.78 -4.73 -4.28 -3.67 -2.95
17.62 20.95 17.80 17.24 9.39 6.09 2.96 3.61 1.88 0.99 -1.36 -4.02 -1.49 -1.56 -2.67 -1.67 -3.24 -4.74 -4.31 2.31 4.35 -7.20 -10.22 -9.42 -10.24 -11.29 -11.05 -11.37 -14.14 -14.74 -13.22 -10.34 -9.25 -8.56 -7.72 -7.34 -10.50 -9.62 -9.27 -8.18 -8.29 -7.97 -7.74 -7.08 -7.12 -7.29 -6.46 -5.50 -4.68 -4.49 -4.85 -5.06 -4.19 -4.04
14.86 15.03 9.19 7.59 3.98 2.36 -3.62 3.72 -1.02 -3.55 -2.36 -4.41 -3.81 -2.55 -5.69 -6.38 -7.61 -4.83 -1.68 -4.42 -9.17 -15.89 -17.93 -17.17 -18.81 -19.88 -14.94 -18.39 -17.31 -17.18 -17.39 -10.67 -9.88 -9.96 -9.16 -7.72 -7.60 -6.83 -6.67 -7.54 -6.29 -7.75 -7.93 -6.77 -6.06 -6.21 -6.11 -5.22 -4.87 -5.03 -4.52 -4.73 -5.26 -5.43
7.09 -2.35 -3.75 -4.60 -1.59 -5.75 -1.91 -3.48 -1.79 -3.82 -4.40 -4.63 -2.82 -5.44 -7.82 -9.36 -10.18 -3.87 -1.60 -5.60 -13.25 -15.42 -15.55 -17.29 -14.72 -12.76 -13.50 -13.50 -11.10 -12.42 -15.45 -14.76 -12.79 -12.83 -11.80 -8.45 -8.08 -8.58 -6.80 -6.46 -6.66 -6.22 -5.62 -5.76 -6.14 -5.70 -5.56 -5.79 -6.02 -5.52 -5.75 -6.51 -6.45 -6.90
1.17 -15.26 -10.26 -11.83 -7.70 -5.37 -5.32 -4.81 -5.13 -3.76 -8.16 -12.06 -8.14 -9.41 -12.26 -17.45 -5.23 -4.42 -5.93 -6.66 -10.60 -13.06 -15.39 -19.78 -17.25 -13.83 -11.87 -12.95 -13.87 -14.42 -25.33 -13.88 -9.89 -9.84 -10.92 -9.74 -7.47 -7.90 -7.89 -6.99 -5.89 -5.38 -4.63 -6.85 -7.15 -6.44 -6.25 -6.28 -6.39 -6.76 -7.23 -7.69 -8.50 -8.81
-16.23 -21.98 -17.61 -18.79 -12.67 -10.91 -12.32 -7.19 -9.92 -10.43 -8.70 -8.72 -13.85 -17.00 -18.37 -10.31 -6.45 -9.66 -10.45 -11.20 -11.53 -13.81 -15.10 -15.60 -13.63 -13.18 -12.61 -12.87 -11.06 -11.81 -11.44 -15.89 -11.90 -7.84 -7.60 -10.20 -8.94 -6.04 -6.01 -7.23 -7.71 -5.69 -3.76 -4.74 -5.46 -6.86 -7.18 -7.00 -7.85 -8.77 -8.76 -8.23 -8.51 -9.80
-16.89 -20.22 -20.05 -20.00 -19.43 -16.78 -14.31 -14.49 -15.07 -11.17 -11.89 -12.89 -15.62 -13.86 -12.31 -10.90 -13.21 -11.46 -10.16 -11.91 -12.29 -12.88 -14.74 -13.46 -11.78 -9.99 -8.23 -10.47 -10.27 -10.39 -10.42 -11.76 -9.33 -6.35 -5.13 -4.97 -4.19 -3.59 -4.47 -6.24 -6.50 -3.91 -4.02 -5.23 -5.76 -6.63 -7.53 -7.97 -8.63 -9.05 -9.42 -8.53 -8.58 -9.16
-23.33 -24.50 -24.74 -21.51 -21.90 -23.91 -18.72 -16.13 -13.85 -15.90 -15.85 -19.95 -19.57 -14.38 -14.53 -15.24 -15.25 -12.31 -11.73 -11.21 -15.05 -16.29 -16.53 -15.83 -13.22 -10.84 -9.33 -7.69 -7.15 -7.59 -8.08 -8.08 -7.09 -6.07 -5.04 -4.83 -4.89 -4.74 -5.22 -4.85 -4.23 -0.21 -4.83 -5.43 -5.88 -6.75 -8.12 -8.74 -9.30 -9.36 -9.55 -9.87 -9.07 -7.76
-19.84 -23.37 -23.75 -19.10 -22.88 -20.38 -24.47 -21.85 -21.04 -23.17 -25.44 -23.20 -16.95 -14.22 -15.63 -14.70 -16.20 -15.74 -12.47 -14.74 -13.89 -12.94 -12.40 -12.37 -11.83 -10.82 -7.89 -6.68 -5.98 -4.41 -4.53 -5.58 -6.14 -7.68 -7.75 -6.27 -5.68 -5.75 -8.03 -8.04 -7.86 -7.42 -6.95 -6.87 -3.59 -2.27 -7.01 -8.65 -8.66 -8.75 -8.50 -8.57 -7.87 -8.56
-22.96 -28.75 -19.02 -15.31 -15.33 -17.74 -23.58 -27.85 -25.51 -30.48 -31.55 -30.54 -30.46 -22.77 -17.77 -14.10 -13.66 -15.89 -17.18 -14.97 -12.78 -12.00 -12.15 -11.21 -9.22 -8.81 -6.93 -5.53 -5.27 -5.71 -4.83 -4.82 -5.08 -5.87 -9.66 -9.86 -8.96 -10.16 -12.57 -11.42 -10.36 -9.59 -9.47 -10.06 -9.51 -8.23 -4.53 -5.33 -8.31 -12.58 -11.48 -12.01 -12.13 -12.59
-30.97 -28.60 -22.99 -21.13 -19.78 -23.79 -29.10 -34.80 -33.69 -33.60 -32.12 -30.31 -34.72 -27.15 -19.63 -22.40 -18.92 -15.07 -15.18 -15.35 -16.69 -15.04 -11.70 -9.08 -9.06 -7.95 -7.47 -6.26 -6.25 -6.36 -4.86 -8.88 -13.73 -16.75 -15.79 -14.81 -13.56 -13.72 -12.10 -9.47 -8.32 -8.71 -9.87 -11.23 -12.15 -12.83 -12.85 -13.65 -14.83 -15.98 -16.45 -16.48 -16.49 -15.93
-24.74 -26.88 -24.80 -20.45 -21.34 -30.09 -34.95 -32.66 -32.46 -29.17 -30.47 -26.70 -24.44 -28.42 -22.28 -18.69 -11.59 -9.21 -11.87 -13.18 -9.85 -9.89 -9.54 -9.59 -8.81 -6.96 -8.40 -8.46 -8.92 -9.21 -11.13 -11.88 -13.34 -14.22 -16.85 -12.88 -9.73 -8.32 -7.82 -7.41 -8.39 -11.18 -13.43 -13.72 -14.33 -15.10 -15.99 -17.89 -16.51 -15.84 -15.09 -15.70 -15.69 -16.05
-22.09 -23.66 -22.32 -20.87 -17.62 -17.94 -22.57 -24.29 -20.53 -20.96 -22.67 -22.08 -24.78 -32.12 -29.52 -24.61 -14.49 -10.94 -10.99 -15.57 -15.31 -15.81 -14.35 -12.89 -12.58 -13.18 -14.02 -14.72 -14.31 -13.90 -13.07 -12.84 -10.99 -3.26 -0.54 0.19 -0.19 -0.27 -0.85 -2.63 -6.55 -9.52 -12.12 -12.41 -12.21 -12.75 -15.03 -16.10 -16.20 -15.92 -16.25 -16.28 -15.95 -15.79
MSLP
1011.12 1011.22 1011.33 1011.58 1011.82 1012.01 1012.16 1012.37 1012.81 1013.07 1013.32 1013.66 1013.77 1013.94 1014.51 1015.03 1015.32 1015.78 1016.00 1016.53 1016.78 1017.14 1016.34 1016.14 1016.12 1016.53 1016.77 1016.67 1016.85 1018.90 1019.76 1020.18 1020.24 1019.83 1019.51 1019.15 1019.06 1018.43 1018.39 1017.76 1017.39 1017.58 1017.46 1017.10 1017.35 1016.73 1015.77 1015.39 1015.79 1015.91 1015.16 1015.44 1015.71 1015.77
1010.32 1010.62 1010.89 1011.04 1011.23 1011.40 1011.59 1011.75 1011.92 1012.07 1012.20 1012.91 1013.00 1013.06 1013.68 1014.33 1014.54 1015.15 1015.74 1016.17 1016.26 1016.72 1016.45 1016.00 1015.37 1015.51 1015.60 1015.77 1016.22 1017.75 1017.54 1018.24 1018.33 1018.63 1018.81 1018.83 1018.91 1018.67 1018.28 1017.73 1017.55 1017.79 1016.83 1016.64 1016.65 1015.74 1015.25 1015.54 1015.23 1015.08 1015.13 1015.12 1014.95 1015.17
1009.60 1009.89 1010.06 1010.32 1010.62 1010.91 1011.00 1011.11 1011.24 1011.45 1011.78 1012.01 1012.14 1012.60 1012.91 1013.24 1013.78 1014.10 1014.72 1015.77 1016.43 1016.51 1016.60 1016.25 1014.99 1015.18 1015.61 1015.47 1015.51 1016.21 1016.93 1017.29 1017.65 1017.49 1018.18 1018.48 1018.31 1017.71 1017.64 1017.32 1017.24 1016.56 1016.13 1016.24 1016.16 1015.59 1014.69 1014.68 1014.55 1014.32 1014.30 1014.37 1014.41 1014.66
1009.00 1009.29 1009.55 1009.81 1009.98 1010.13 1010.25 1010.46 1010.69 1010.84 1010.95 1011.16 1011.46 1011.76 1012.12 1012.41 1012.78 1013.29 1013.94 1014.65 1015.58 1015.89 1015.49 1014.02 1014.69 1014.32 1014.45 1015.10 1015.27 1015.26 1015.87 1016.86 1017.37 1017.96 1018.14 1018.06 1017.66 1016.99 1016.77 1016.51 1016.31 1015.37 1015.43 1014.97 1014.99 1014.66 1014.27 1014.14 1013.93 1013.88 1013.97 1014.11 1014.22 1014.50
1008.29 1008.56 1008.82 1009.06 1009.26 1009.52 1009.69 1009.76 1009.87 1010.08 1010.29 1010.46 1010.65 1010.92 1011.34 1011.64 1012.07 1012.53 1012.92 1013.49 1013.95 1014.75 1014.08 1013.73 1014.10 1013.45 1013.72 1014.17 1014.56 1015.25 1015.81 1016.42 1017.34 1017.79 1017.42 1016.77 1016.28 1016.62 1016.34 1016.10 1015.13 1014.35 1013.71 1014.24 1013.38 1013.25 1013.25 1012.81 1013.09 1013.33 1013.79 1013.99 1014.34 1014.81
1007.52 1007.82 1008.12 1008.34 1008.46 1008.57 1008.74 1008.91 1009.20 1009.27 1009.49 1009.82 1010.05 1010.31 1010.68 1011.01 1011.44 1012.03 1011.93 1012.29 1012.70 1013.60 1013.90 1013.64 1012.67 1012.75 1013.11 1013.48 1013.81 1014.49 1015.08 1015.76 1016.42 1016.36 1016.05 1015.51 1015.10 1015.51 1014.96 1014.07 1013.14 1012.88 1013.06 1012.96 1012.67 1012.46 1012.77 1012.56 1012.88 1013.20 1013.71 1014.30 1014.93 1015.77
1006.82 1007.12 1007.38 1007.55 1007.70 1007.82 1007.92 1008.09 1008.36 1008.61 1008.85 1009.01 1009.30 1009.59 1009.92 1010.27 1010.73 1010.77 1011.14 1011.26 1011.52 1012.83 1013.06 1012.52 1012.39 1012.83 1012.98 1013.39 1013.69 1013.97 1014.56 1015.06 1015.36 1015.20 1014.73 1014.36 1014.20 1014.66 1013.60 1012.49 1012.07 1011.65 1011.71 1011.74 1012.02 1012.48 1012.57 1012.69 1013.01 1013.53 1014.39 1015.31 1016.29 1017.03
1006.15 1006.45 1006.68 1006.84 1007.04 1007.15 1007.27 1007.40 1007.63 1007.88 1008.14 1008.43 1008.66 1008.90 1009.19 1009.56 1009.88 1009.87 1010.03 1010.69 1011.44 1011.67 1011.68 1011.38 1011.65 1012.81 1012.80 1013.01 1013.45 1013.71 1014.02 1014.48 1014.31 1013.99 1013.73 1013.37 1013.70 1013.42 1012.06 1011.72 1011.43 1011.24 1011.15 1011.43 1011.64 1012.17 1012.65 1013.13 1014.00 1014.91 1015.75 1016.50 1017.20 1017.74
1005.55 1005.75 1005.89 1006.04 1006.27 1006.49 1006.70 1006.89 1007.11 1007.37 1007.66 1007.92 1008.18 1008.44 1008.72 1008.82 1008.73 1008.52 1009.13 1009.97 1010.39 1011.07 1010.07 1009.99 1010.51 1011.36 1012.33 1012.04 1012.46 1013.60 1013.40 1013.37 1013.22 1012.94 1012.35 1012.82 1012.01 1010.99 1010.24 1010.13 1010.45 1010.69 1011.14 1011.49 1011.79 1013.29 1014.14 1014.72 1015.12 1015.87 1016.75 1017.42 1017.97 1018.41
1004.92 1005.09 1005.19 1005.38 1005.53 1005.75 1006.01 1006.41 1006.69 1006.97 1007.29 1007.54 1008.01 1008.17 1007.34 1006.94 1007.50 1008.46 1008.66 1008.84 1008.87 1008.75 1008.97 1008.42 1008.83 1009.81 1010.90 1011.44 1011.96 1012.82 1013.00 1012.61 1012.19 1011.57 1011.33 1011.00 1009.91 1009.66 1009.52 1009.68 1010.46 1011.13 1011.89 1012.85 1013.87 1014.76 1015.57 1015.94 1016.32 1016.92 1017.75 1018.42 1018.95 1019.43
1004.17 1004.35 1004.47 1004.79 1005.01 1005.24 1005.40 1005.65 1006.00 1006.41 1006.81 1007.20 1006.92 1006.69 1006.62 1006.56 1006.92 1007.30 1006.93 1006.92 1006.86 1006.86 1007.06 1007.33 1007.69 1008.85 1010.34 1010.37 1010.97 1011.53 1011.69 1011.76 1011.37 1010.43 1010.69 1009.76 1008.97 1008.99 1009.71 1010.30 1010.98 1012.38 1013.40 1014.55 1015.33 1015.99 1016.67 1017.16 1017.45 1018.20 1018.92 1019.51 1020.04 1020.47
1003.58 1003.73 1003.83 1004.01 1004.18 1004.41 1004.64 1005.14 1005.51 1005.85 1005.94 1006.25 1006.62 1006.68 1006.67 1006.21 1005.95 1005.92 1005.05 1005.45 1005.51 1005.23 1005.95 1006.19 1006.87 1007.53 1009.34 1009.91 1010.15 1010.90 1010.89 1011.27 1010.53 1010.76 1010.49 1009.03 1008.96 1009.21 1010.20 1011.50 1013.08 1014.24 1015.21 1016.21 1016.96 1017.51 1018.06 1018.40 1018.95 1019.41 1019.93 1020.38 1020.88 1021.17
1002.89 1003.04 1003.14 1003.24 1003.39 1003.61 1003.73 1004.02 1004.40 1005.04 1005.57 1006.14 1006.38 1005.94 1005.08 1004.40 1004.36 1004.29 1004.22 1004.31 1004.50 1005.00 1005.55 1006.02 1007.04 1007.51 1008.97 1009.25 1009.44 1009.86 1010.06 1010.15 1010.76 1010.55 1009.46 1008.80 1009.16 1010.47 1011.95 1013.71 1015.25 1016.39 1017.08 1017.73 1018.42 1018.91 1019.38 1019.77 1020.18 1020.52 1020.77 1021.12 1021.42 1021.70
1002.72 1002.68 1002.69 1002.67 1002.66 1002.82 1002.93 1003.11 1003.61 1004.23 1005.07 1004.65 1004.12 1003.95 1003.73 1003.23 1002.85 1002.95 1003.29 1003.26 1003.48 1003.73 1004.57 1005.02 1006.18 1007.00 1007.50 1008.05 1008.22 1008.62 1009.17 1009.99 1009.85 1009.30 1008.57 1008.71 1009.83 1011.65 1013.82 1015.38 1016.68 1017.68 1018.37 1019.00 1019.55 1019.95 1020.24 1020.56 1020.80 1021.05 1021.28 1021.55 1021.82 1022.03
1002.40 1002.25 1002.11 1001.93 1001.83 1001.78 1001.93 1002.28 1002.73 1003.44 1003.89 1003.33 1002.81 1002.64 1002.93 1003.03 1003.77 1004.29 1004.54 1004.66 1004.82 1004.17 1004.56 1005.55 1005.97 1006.20 1006.65 1007.01 1007.19 1007.91 1008.94 1008.89 1008.69 1008.37 1008.78 1009.79 1011.64 1013.39 1015.30 1016.87 1017.87 1018.73 1019.43 1020.02 1020.58 1020.92 1021.00 1021.20 1021.40 1021.51 1021.62 1021.80 1021.88 1021.92
1002.09 1001.77 1001.61 1001.42 1001.20 1001.05 1001.07 1001.51 1002.15 1003.07 1002.80 1002.99 1002.78 1003.33 1003.90 1004.14 1004.83 1005.40 1005.26 1005.37 1005.61 1005.00 1004.98 1005.31 1005.55 1005.70 1005.79 1005.99 1006.42 1006.92 1007.72 1007.88 1008.27 1009.33 1010.46 1012.13 1013.79 1015.22 1016.51 1017.73 1018.71 1019.58 1020.28 1020.75 1021.22 1021.52 1021.61 1021.75 1021.86 1021.85 1021.85 1021.63 1021.37 1021.25
1002.06 1001.87 1001.79 1001.50 1001.10 1001.05 1001.12 1001.65 1002.28 1002.69 1003.26 1003.58 1004.70 1005.29 1005.43 1005.56 1004.61 1004.98 1005.18 1005.07 1005.60 1005.42 1004.96 1005.25 1005.04 1005.05 1005.68 1005.93 1006.33 1006.78 1007.16 1008.18 1009.56 1011.11 1012.59 1013.97 1015.20 1016.75 1017.95 1018.81 1019.48 1020.16 1020.70 1021.05 1021.44 1021.76 1021.94 1022.05 1022.21 1021.95 1021.56 1020.86 1020.71 1020.37
1002.39 1002.23 1001.66 1001.05 1001.30 1001.77 1002.77 1003.34 1003.66 1004.13 1005.03 1006.08 1006.29 1006.95 1007.35 1007.83 1007.56 1007.40 1007.00 1006.60 1006.24 1005.62 1005.44 1005.37 1005.73 1006.20 1006.20 1006.37 1006.96 1007.56 1008.88 1011.02 1012.37 1013.33 1014.60 1015.99 1016.99 1018.09 1018.86 1019.56 1020.68 1020.89 1020.83 1021.08 1021.46 1021.74 1021.81 1021.85 1021.62 1021.04 1020.84 1020.36 1020.15 1019.58
1002.35 1002.09 1001.89 1001.15 1001.43 1002.31 1003.85 1005.25 1005.47 1005.77 1007.48 1008.12 1008.51 1008.85 1009.05 1009.46 1009.78 1009.61 1008.73 1008.05 1007.63 1007.12 1006.63 1006.58 1007.14 1007.54 1008.04 1008.55 1009.32 1010.35 1011.30 1012.28 1013.53 1014.95 1016.21 1017.46 1018.09 1019.14 1019.75 1020.28 1020.81 1021.12 1021.12 1021.17 1021.35 1021.28 1021.35 1021.38 1021.26 1020.92 1020.50 1020.08 1019.71 1019.25
1002.48 1002.39 1002.33 1002.43 1002.13 1003.43 1005.34 1006.83 1007.15 1007.08 1008.49 1009.31 1009.84 1009.79 1010.28 1010.59 1010.77 1010.47 1009.85 1009.28 1008.73 1008.19 1008.40 1008.66 1009.25 1010.20 1011.20 1012.11 1012.99 1013.32 1013.42 1013.88 1014.70 1015.75 1016.85 1017.92 1018.71 1019.44 1019.76 1020.23 1020.54 1020.99 1021.14 1021.19 1021.17 1021.13 1021.00 1020.80 1020.70 1020.53 1020.36 1020.05 1019.70 1019.33
1002.98 1002.99 1003.02 1003.13 1004.47 1005.48 1006.94 1007.94 1008.68 1009.37 1009.65 1009.90 1010.65 1010.65 1011.21 1011.41 1011.35 1011.25 1011.00 1010.97 1010.50 1010.43 1011.01 1012.09 1012.91 1013.76 1014.49 1015.19 1015.77 1015.55 1015.41 1015.43 1015.66 1015.77 1016.26 1017.60 1018.70 1019.15 1019.84 1020.38 1020.81 1020.97 1020.90 1020.92 1020.81 1020.86 1020.82 1020.74 1020.71 1020.57 1020.36 1020.10 1019.92 1019.65
1003.70 1003.51 1003.72 1004.15 1005.51 1007.08 1008.38 1009.43 1009.56 1010.29 1010.58 1011.25 1011.19 1011.55 1011.93 1012.39 1012.61 1012.88 1012.97 1012.29 1012.55 1013.98 1015.06 1015.54 1016.01 1016.55 1016.52 1017.13 1017.51 1017.70 1017.57 1017.17 1016.99 1017.15 1017.34 1017.93 1018.80 1019.31 1019.81 1020.26 1020.65 1020.71 1020.75 1020.74 1020.75 1020.73 1020.76 1020.77 1020.73 1020.62 1020.45 1020.26 1020.05 1019.81
1004.46 1004.43 1005.46 1006.18 1007.03 1008.21 1010.54 1010.30 1010.38 1010.98 1011.26 1011.89 1012.18 1012.40 1013.29 1013.66 1013.93 1013.86 1013.43 1013.90 1015.31 1016.87 1017.26 1017.58 1018.15 1018.56 1018.02 1018.46 1018.44 1018.62 1018.40 1018.06 1017.85 1017.88 1018.26 1018.51 1018.91 1019.31 1019.75 1020.20 1020.39 1020.48 1020.50 1020.56 1020.69 1020.71 1020.67 1020.73 1020.64 1020.56 1020.41 1020.23 1020.06 1019.80
1006.17 1007.89 1008.96 1009.48 1009.87 1010.97 1011.14 1011.22 1011.48 1011.83 1012.15 1012.38 1012.69 1013.67 1014.56 1014.83 1014.73 1014.19 1013.94 1015.00 1016.54 1017.46 1018.19 1018.82 1018.85 1018.77 1018.84 1018.77 1018.81 1019.18 1019.24 1018.90 1018.65 1018.86 1019.10 1019.22 1019.39 1019.80 1019.98 1020.12 1020.25 1020.30 1020.39 1020.52 1020.60 1020.58 1020.62 1020.59 1020.62 1020.53 1020.43 1020.30 1020.09 1019.89
1008.16 1013.66 1013.61 1013.33 1013.20 1012.79 1012.65 1012.63 1012.68 1012.69 1013.30 1013.90 1014.18 1014.97 1015.85 1016.06 1015.09 1014.75 1015.16 1015.92 1016.94 1017.91 1018.78 1019.33 1019.12 1018.90 1018.68 1018.83 1019.00 1019.30 1019.72 1019.39 1019.24 1019.31 1019.63 1019.70 1019.72 1019.84 1019.94 1019.97 1020.01 1020.10 1020.24 1020.39 1020.41 1020.42 1020.44 1020.54 1020.56 1020.52 1020.43 1020.29 1020.12 1019.96
1013.33 1017.35 1017.42 1017.04 1016.36 1015.50 1015.35 1014.84 1014.74 1014.93 1014.97 1015.38 1016.08 1016.79 1016.99 1016.39 1015.73 1016.07 1016.70 1017.39 1017.88 1018.43 1018.83 1019.01 1018.91 1018.78 1018.63 1018.75 1018.77 1019.08 1019.41 1019.76 1019.74 1019.45 1019.40 1019.58 1019.59 1019.53 1019.56 1019.69 1019.69 1019.58 1019.72 1019.97 1020.06 1020.13 1020.26 1020.37 1020.43 1020.41 1020.27 1020.12 1020.05 1019.99
1017.53 1019.44 1019.66 1019.81 1019.11 1018.23 1017.51 1017.18 1017.12 1016.85 1017.06 1017.58 1017.84 1017.56 1017.37 1017.16 1017.24 1017.58 1017.88 1018.45 1018.85 1019.12 1019.35 1019.21 1018.97 1018.82 1018.59 1018.73 1018.93 1019.09 1019.23 1019.48 1019.39 1019.39 1019.24 1019.26 1019.35 1019.37 1019.46 1019.50 1019.42 1019.46 1019.57 1019.75 1019.87 1020.00 1020.10 1020.17 1020.22 1020.19 1020.09 1019.93 1019.86 1019.79
1020.92 1021.50 1021.63 1020.90 1020.17 1020.19 1019.56 1019.39 1019.39 1019.76 1020.14 1020.47 1020.09 1019.30 1018.88 1018.95 1019.26 1019.23 1019.33 1019.60 1019.92 1019.83 1019.67 1019.53 1019.33 1019.17 1018.89 1018.74 1018.78 1018.96 1019.22 1019.45 1019.57 1019.51 1019.30 1019.17 1019.15 1019.21 1019.30 1019.36 1019.42 1019.41 1019.55 1019.60 1019.68 1019.81 1019.93 1019.97 1019.96 1019.87 1019.74 1019.53 1019.27 1019.20
1022.43 1022.71 1022.43 1021.65 1021.25 1021.36 1022.16 1022.51 1022.64 1023.17 1023.64 1023.03 1022.19 1021.36 1020.94 1020.53 1020.67 1020.59 1020.33 1020.45 1020.27 1019.93 1019.76 1019.69 1019.53 1019.38 1019.14 1018.94 1018.90 1019.00 1019.16 1019.38 1019.49 1019.47 1019.36 1019.22 1019.20 1019.34 1019.30 1019.33 1019.34 1019.36 1019.38 1019.41 1019.40 1019.32 1019.43 1019.46 1019.34 1019.26 1019.01 1018.90 1018.71 1018.63
1024.19 1024.24 1022.97 1022.08 1022.15 1023.09 1024.27 1025.02 1025.04 1025.42 1025.40 1025.39 1024.93 1023.33 1022.22 1021.39 1021.20 1021.47 1021.07 1020.58 1020.28 1020.15 1020.05 1019.89 1019.64 1019.60 1019.46 1019.31 1019.19 1019.25 1019.23 1019.26 1019.38 1019.57 1019.64 1019.58 1019.54 1019.53 1019.47 1019.41 1019.32 1019.23 1019.25 1019.27 1019.16 1018.99 1018.86 1018.70 1018.70 1018.81 1018.69 1018.61 1018.55 1018.40
1025.33 1024.69 1023.78 1023.35 1023.58 1024.61 1025.70 1026.31 1026.30 1026.28 1025.95 1025.65 1025.28 1024.43 1023.35 1022.76 1021.72 1021.28 1021.19 1021.02 1020.86 1020.59 1020.21 1019.89 1019.78 1019.72 1019.74 1019.61 1019.59 1019.51 1019.37 1019.66 1019.80 1019.85 1019.78 1019.68 1019.47 1019.32 1019.13 1018.94 1018.82 1018.78 1018.80 1018.86 1018.85 1018.73 1018.65 1018.61 1018.56 1018.47 1018.30 1018.08 1017.82 1017.74
1025.35 1025.27 1024.90 1024.20 1024.41 1025.45 1026.19 1026.10 1025.69 1025.38 1025.22 1024.96 1024.80 1024.52 1023.61 1023.21 1022.00 1021.06 1021.21 1021.06 1020.67 1020.64 1020.49 1020.29 1020.16 1020.04 1020.14 1020.06 1020.05 1020.04 1020.17 1020.04 1019.85 1019.61 1019.44 1019.17 1018.82 1018.53 1018.34 1018.19 1018.11 1018.14 1018.24 1018.27 1018.23 1018.06 1018.01 1018.01 1017.87 1017.64 1017.35 1017.04 1016.79 1016.60
1025.74 1025.67 1025.36 1025.22 1024.87 1024.99 1025.32 1025.23 1024.57 1024.33 1024.16 1024.28 1024.44 1024.56 1024.29 1023.81 1022.78 1021.79 1021.23 1021.39 1021.52 1021.41 1021.16 1020.98 1020.77 1020.67 1020.57 1020.46 1020.31 1020.12 1019.89 1019.60 1019.29 1019.03 1018.65 1018.29 1017.94 1017.65 1017.42 1017.26 1017.24 1017.23 1017.30 1017.22 1017.12 1017.06 1016.99 1016.94 1016.84 1016.62 1016.41 1016.17 1015.84 1015.58
Wind_Speed
14 16 16 18 20 19 18 18 18 19 18 19 18 19 21 22 21 12 6 10 7 4 5 12 9 6 6 8 6 5 5 2 5 6 6 5 6 7 6 10 8 8 8 7 5 7 13 5 6 6 3 5 4 9
17 17 15 16 17 17 19 20 19 19 19 19 19 18 18 20 21 18 3 7 8 4 4 5 15 16 16 11 6 6 1 4 6 6 5 4 4 3 7 7 7 8 11 7 7 6 2 8 10 10 11 10 14 17
18 18 18 16 15 14 15 18 20 21 20 20 20 22 20 20 23 19 7 5 3 2 3 5 11 13 12 14 11 6 4 7 5 4 4 5 9 5 8 10 13 15 16 12 13 15 22 18 18 18 16 17 16 15
18 18 17 16 16 17 17 16 17 18 20 20 20 21 21 20 22 20 9 7 6 2 5 6 3 16 16 15 17 15 11 4 6 5 6 7 7 8 9 11 11 13 4 12 13 20 20 19 20 19 18 17 16 12
20 20 19 18 18 18 19 19 19 17 18 19 20 22 21 21 21 14 10 8 10 7 3 5 3 8 11 14 19 18 15 13 7 6 6 8 8 7 7 9 11 17 22 13 15 19 16 18 16 13 13 16 11 7
18 18 18 19 20 21 21 20 20 19 18 17 19 19 19 20 19 7 5 8 12 7 3 5 1 5 13 15 16 17 15 11 7 6 5 7 15 7 6 10 21 22 18 19 19 20 19 21 18 15 14 10 4 3
16 16 16 18 17 20 22 21 20 20 19 18 18 19 19 20 11 5 3 2 16 11 4 4 4 4 5 7 6 7 12 6 6 6 7 10 9 10 6 16 17 20 16 18 18 17 20 21 15 6 1 5 5 4
14 15 15 15 16 16 16 17 17 17 18 19 19 18 19 20 17 12 9 8 11 5 4 5 4 4 10 7 6 5 5 4 6 5 4 9 5 7 8 14 21 21 22 19 18 15 14 8 1 4 4 5 5 5
14 15 17 17 16 16 14 14 14 14 14 15 15 17 9 8 5 2 12 18 9 6 4 5 7 7 6 5 4 4 5 6 5 7 10 7 7 10 14 20 19 21 19 18 7 4 1 4 5 6 5 5 5 5
15 16 17 18 18 17 16 14 14 12 11 11 6 4 5 6 12 13 10 7 10 7 6 6 7 8 8 8 7 6 4 5 5 8 5 7 13 17 22 17 10 5 2 5 2 5 3 5 6 6 6 2 2 2
17 17 17 17 16 16 15 16 16 15 12 3 5 5 1 7 4 5 7 8 6 7 7 5 11 8 4 6 6 7 5 5 5 5 7 6 8 16 15 16 5 6 6 5 4 4 4 3 2 4 3 2 2 2
16 17 17 18 19 19 17 17 16 10 5 4 0 2 2 5 5 7 7 7 6 6 6 8 8 7 6 4 4 7 5 6 6 4 5 5 8 10 5 5 6 6 7 6 4 5 4 3 3 2 1 3 3 3
11 13 14 15 17 18 19 18 20 18 12 3 4 7 5 6 9 7 10 5 7 6 6 6 6 6 5 5 4 6 9 8 5 6 6 6 5 3 5 6 5 5 6 6 5 4 3 2 2 1 2 3 3 5
4 6 9 12 15 18 19 20 19 15 5 6 9 10 8 6 7 6 7 6 4 5 10 9 7 6 5 8 5 6 4 5 7 7 9 8 6 6 6 5 6 6 4 5 4 3 2 2 2 2 3 3 3 5
9 11 14 15 15 17 18 17 17 9 5 6 6 9 8 2 2 2 2 1 1 3 9 5 3 4 4 5 6 4 7 6 7 7 8 1 4 7 7 5 5 5 5 4 3 2 1 1 2 5 3 3 4 5
13 12 3 9 12 17 18 15 9 4 5 4 2 1 2 3 3 3 3 3 2 5 3 2 4 5 6 4 8 7 7 8 5 4 3 5 5 5 7 6 6 5 4 3 2 1 2 2 3 4 5 5 5 5
10 1 12 13 10 16 7 3 4 2 3 4 3 1 2 4 3 4 2 5 5 5 4 3 7 7 5 5 5 5 6 6 3 3 3 3 6 6 5 5 5 5 4 3 2 1 2 2 2 3 5 4 4 6
2 6 16 15 4 4 3 5 3 2 3 2 2 2 2 3 3 2 3 2 3 4 5 4 3 5 5 6 4 3 2 4 3 3 4 5 6 6 5 6 3 2 3 3 2 1 2 3 4 3 3 4 5 5
6 1 16 12 6 5 3 4 4 3 2 2 2 2 2 2 2 4 3 1 2 1 1 4 4 4 3 2 2 2 2 3 4 4 5 4 6 5 4 4 3 2 2 2 3 1 1 1 3 3 4 4 4 4
7 10 9 15 7 3 4 3 4 2 3 3 0 2 3 2 1 2 3 3 3 1 2 4 3 2 2 3 3 2 2 5 6 5 4 4 4 5 4 4 2 3 3 3 2 2 1 1 0 2 3 4 4 4
4 5 8 6 4 6 5 3 4 3 2 3 2 2 3 2 3 3 2 4 2 1 1 4 3 2 2 3 2 2 4 3 2 2 4 5 5 4 4 3 2 2 2 1 1 1 0 1 2 3 3 3 4 4
2 6 2 4 4 4 5 5 3 2 2 2 2 2 3 2 2 2 3 2 1 3 2 3 2 1 2 3 3 4 3 4 5 5 8 10 5 4 4 4 4 3 2 1 1 0 0 1 2 2 3 3 4 3
5 4 5 5 5 6 3 1 2 4 2 2 2 2 2 1 2 3 1 2 2 1 2 3 2 3 3 2 2 3 4 3 4 5 4 4 5 4 4 3 2 2 2 2 1 1 1 2 2 2 2 3 3 3
10 8 7 6 6 3 1 3 2 2 2 1 2 3 2 2 4 1 1 2 2 1 1 1 1 1 2 1 2 1 2 1 4 3 2 3 3 2 2 2 2 2 1 1 2 2 2 1 2 2 2 3 3 4
6 10 7 6 4 3 4 3 3 2 2 2 2 2 2 3 1 1 2 3 2 1 2 1 1 2 1 1 1 1 0 0 2 3 3 1 1 2 1 2 2 3 3 3 3 3 2 2 2 2 3 3 4 5
10 6 6 5 4 3 3 1 3 3 1 2 3 1 1 1 1 2 3 4 3 2 1 2 2 0 0 0 2 1 2 3 1 1 2 4 3 2 2 3 2 2 5 4 3 4 3 3 3 4 4 4 5 5
7 6 4 1 2 2 1 1 1 1 3 3 1 1 1 2 2 2 2 2 3 3 3 2 1 1 1 2 1 1 2 4 2 2 2 2 4 4 3 3 4 1 2 4 4 4 3 3 4 4 5 4 4 4
3 5 4 6 3 2 2 2 3 4 3 2 2 3 2 3 1 3 2 3 3 4 3 2 2 1 1 1 1 3 2 2 2 3 4 4 4 3 3 3 3 5 2 3 3 4 4 4 4 5 5 7 7 5
3 4 3 3 1 4 4 3 2 2 3 2 3 2 2 2 2 3 2 4 4 3 0 1 1 1 2 1 1 1 1 3 3 1 2 1 2 1 1 1 2 2 2 3 6 8 7 7 7 7 8 6 6 6
4 4 4 4 3 4 2 2 2 2 1 2 3 3 2 2 1 2 3 3 3 3 2 1 1 1 1 2 1 2 3 3 2 2 1 2 2 1 1 2 2 2 2 3 5 5 7 5 5 3 4 5 5 6
3 2 2 2 2 2 2 2 1 1 1 1 0 2 2 4 4 2 2 2 2 2 2 0 1 2 2 2 2 2 1 2 2 3 3 3 4 4 4 4 4 3 3 4 4 5 5 5 5 6 7 9 9 8
3 3 3 3 2 1 0 2 2 1 2 1 2 1 2 2 2 2 2 4 3 2 2 2 2 2 3 3 2 2 3 4 4 3 5 4 5 5 5 4 4 3 4 5 5 6 6 8 7 8 9 11 10 10
2 1 1 2 1 1 3 3 0 2 1 2 3 1 2 2 3 3 1 0 1 2 3 3 2 2 3 3 3 4 4 4 6 8 10 11 11 10 7 5 5 5 6 6 7 7 8 10 10 11 11 12 12 12
Wind_Direction
251 256 250 238 243 246 245 230 222 232 230 226 221 216 219 224 215 187 198 191 186 214 234 203 196 176 175 191 177 130 141 183 182 208 208 213 236 210 246 255 270 254 253 226 230 263 271 74 122 223 339 138 217 283
248 254 252 253 255 250 241 244 246 237 234 240 239 230 218 220 222 190 203 202 203 203 301 236 231 229 211 199 191 185 120 151 178 198 201 220 204 219 225 245 218 242 242 263 243 262 215 190 257 262 274 270 289 296
242 246 251 246 242 249 259 257 250 244 244 240 238 236 235 229 224 214 201 143 179 219 248 213 219 227 242 228 208 184 212 191 207 230 180 223 237 217 224 225 254 257 252 249 258 251 259 268 267 270 275 274 284 284
244 243 241 249 255 257 256 251 255 254 250 245 244 237 238 230 228 219 210 167 172 172 241 237 268 230 220 219 225 228 238 175 247 177 223 229 224 211 234 242 245 244 229 240 252 257 269 263 262 265 269 275 281 285
246 242 242 245 247 248 253 256 252 252 254 248 246 239 246 232 227 226 219 194 192 194 261 225 144 207 188 204 218 222 227 223 208 198 208 222 233 241 230 249 244 239 241 246 250 260 262 271 277 280 287 283 288 283
246 240 244 249 255 254 250 250 252 254 249 252 248 240 230 241 229 223 222 193 194 202 213 213 210 169 191 204 207 207 214 219 206 203 215 232 236 206 220 233 239 252 251 244 256 259 263 268 278 281 287 292 188 198
242 243 250 255 259 259 253 248 249 247 251 244 240 237 234 231 219 211 191 63 188 167 219 217 207 113 176 189 207 219 213 208 216 215 222 234 222 220 229 242 244 249 252 251 248 258 263 264 272 322 192 134 116 115
237 243 246 250 253 256 254 249 247 246 245 247 249 244 241 237 239 228 199 142 163 219 177 216 165 178 177 167 181 189 179 185 205 226 231 233 230 222 241 237 244 251 257 262 259 253 264 301 79 144 145 156 184 206
246 255 259 258 255 252 256 249 246 246 247 246 246 247 249 225 213 200 181 188 180 205 215 189 179 204 162 171 149 169 196 198 187 221 227 207 216 222 229 240 240 246 253 261 265 101 94 236 233 191 192 195 229 222
251 260 259 262 255 252 244 245 247 243 247 250 243 194 223 192 143 148 177 194 198 197 212 203 184 189 183 167 176 158 187 217 210 219 204 221 237 240 245 251 260 246 155 124 147 247 195 236 217 207 205 197 237 245
258 262 259 251 246 247 249 245 246 244 241 192 208 217 69 175 154 184 214 203 175 192 187 169 198 158 217 169 168 208 178 192 224 211 201 220 237 240 244 247 215 131 130 113 77 87 72 50 142 181 193 205 236 270
253 250 244 241 243 241 233 235 235 231 202 183 122 47 208 188 197 220 193 180 213 200 157 176 169 167 154 170 166 170 197 192 233 132 221 240 245 244 176 136 122 116 120 119 113 134 129 135 112 151 233 257 267 283
261 260 257 253 244 243 241 240 231 224 229 188 193 210 214 174 201 200 190 170 195 156 168 154 144 149 140 197 177 175 204 207 112 194 218 232 230 163 138 130 118 119 121 127 132 118 107 119 108 186 256 269 290 282
295 290 282 271 264 254 246 238 235 215 208 225 204 207 210 199 208 182 231 241 151 171 159 171 137 161 164 175 175 210 136 138 200 208 231 245 212 137 135 138 136 157 132 140 146 159 179 221 262 282 261 273 272 263
318 299 288 276 265 254 242 233 224 203 233 231 209 208 207 135 60 93 84 167 135 171 134 121 108 155 156 193 188 130 174 210 216 232 234 198 105 135 142 149 139 142 152 162 164 200 227 287 297 299 289 267 260 254
331 309 349 335 296 264 238 230 214 184 212 237 314 9 45 200 141 165 156 147 189 153 100 114 141 184 195 192 188 193 187 209 217 205 89 123 140 134 137 145 139 128 142 139 157 230 279 271 270 292 308 278 257 248
333 265 336 310 337 58 40 117 182 173 324 169 143 43 45 314 262 118 156 135 165 170 161 171 193 191 121 198 203 191 215 235 81 118 98 100 149 138 120 129 137 143 148 138 122 228 273 298 318 275 282 303 277 276
285 327 322 301 155 84 51 28 81 33 98 47 238 81 64 26 347 12 29 95 201 188 159 179 111 198 206 191 206 217 103 91 58 97 107 110 102 105 124 132 133 152 139 130 156 225 233 244 260 283 288 294 284 264
315 333 8 56 78 87 70 55 346 121 72 40 101 84 57 95 57 337 321 0 348 302 137 160 189 192 201 217 8 71 115 162 151 135 109 92 108 124 122 101 120 164 149 156 179 194 319 263 281 306 311 313 315 323
337 12 25 38 36 89 93 48 333 105 124 96 81 75 71 56 28 352 351 357 322 232 178 205 211 67 26 56 33 10 88 123 132 132 130 141 133 136 144 155 156 134 151 155 184 226 226 204 5 341 335 322 322 331
6 2 29 54 56 52 67 60 65 37 101 88 59 33 68 29 42 27 36 350 272 275 287 25 21 73 63 56 1 346 104 139 95 39 114 145 147 150 128 131 147 174 173 152 140 123 73 20 346 338 331 333 334 329
356 13 52 47 80 71 76 20 68 63 54 59 78 12 50 56 46 32 315 244 67 54 29 2 26 2 107 88 44 19 52 92 80 97 86 110 133 139 149 158 173 174 175 161 155 71 349 345 327 323 325 334 335 330
19 25 53 19 82 45 42 308 77 14 96 122 179 108 65 55 350 317 241 46 56 43 28 22 24 340 41 65 113 62 19 49 84 81 91 88 97 104 126 156 180 172 180 173 185 233 252 295 298 316 321 331 332 330
32 45 31 40 22 72 351 50 62 74 84 55 100 117 109 357 322 242 176 62 45 11 55 85 250 121 126 106 76 83 82 32 83 79 68 121 128 151 175 176 190 211 224 140 206 224 232 249 302 303 319 321 327 329
70 7 1 25 19 25 49 44 31 54 66 24 76 85 53 324 243 59 10 19 24 80 108 148 228 12 38 81 77 82 79 68 133 142 161 225 113 119 175 215 228 224 183 203 217 215 216 227 251 279 299 301 313 316
68 357 29 354 12 21 2 62 40 45 22 101 47 22 288 266 130 60 11 343 346 334 210 197 178 115 45 307 110 144 176 182 223 185 153 184 203 212 210 210 221 232 190 207 205 203 218 231 252 279 291 298 302 302
60 2 5 62 318 295 103 96 189 330 55 47 34 21 329 80 64 12 2 38 333 12 327 298 202 288 351 136 222 195 139 169 197 14 26 179 220 228 229 233 249 272 151 195 204 210 230 249 270 280 285 287 273 274
82 18 21 337 14 351 38 22 27 40 32 25 271 42 64 43 61 355 346 13 338 314 299 279 258 299 338 178 108 122 124 172 252 281 271 247 238 241 233 245 254 248 214 209 218 218 227 241 255 266 272 276 285 275
42 355 291 346 36 56 47 25 43 43 358 313 340 53 52 15 327 313 334 333 313 301 15 149 207 281 320 43 111 145 136 169 198 263 319 346 360 94 26 246 252 246 248 249 250 238 228 235 242 246 255 262 275 286
18 354 324 4 22 41 39 352 6 22 307 345 311 276 236 247 311 310 303 321 344 3 354 327 8 208 303 271 211 217 217 226 239 253 237 255 252 0 296 280 272 242 237 242 257 270 280 291 307 302 281 272 269 272
314 302 319 9 58 47 22 350 269 248 265 307 59 299 340 328 301 221 308 334 298 295 291 219 153 193 268 279 289 305 333 72 359 301 287 288 284 270 264 263 259 250 243 247 252 253 260 261 252 261 262 262 259 252
332 29 345 357 7 102 300 24 15 31 349 15 27 284 266 246 63 44 19 334 350 1 5 346 321 46 31 351 335 313 303 297 291 265 269 258 264 262 261 257 244 233 238 242 236 239 237 244 257 254 263 268 268 266
278 249 259 288 276 69 32 321 201 120 102 59 40 357 354 346 75 334 19 103 344 314 324 331 338 327 324 312 294 295 285 268 275 286 296 292 288 283 278 260 245 237 238 245 246 242 244 244 253 258 259 259 262 263